Location: Limoges
(45.8500°N, 1.2500°E)
Time: 02:20:40
(UTC+02:00)

ISS - Pass Details

Date: 01 October 2021
Orbit: 417 x 423 km, 51.6° (Epoch: 21 October)

Event Time Altitude Azimuth Distance (km) Brightness Sun altitude
Rises 21:51:11 0° 295° (WNW) 2,366 1.5 -24.1°
Reaches altitude 10° 21:53:20 10° 289° (WNW) 1,501 0.1 -24.5°
Enters shadow 21:55:28 32° 265° (W) 751 -2.0 -24.8°
